This demonstration page uses our WeatherBlox Daily Observations layout. Learn more.

Left ArrowRight Arrow

36.17497, -115.13722

Hourly Observations for June 28, 2022

Temp ( °F °C ) Dew Point ( °F °C ) Humidity (%) Winds ( mph kmh ) Pressure ( in mb ) Visibility ( mi km ) Precip ( " mm )
12:53 am 00:53 Clear 89 31.7 42 5.6 19 19 E 6 9 29.93 1014 10 16 0.00 0.00
1:53 am 01:53 Clear 91 32.8 42 5.6 18 18 N 5 7 29.92 1013 10 16 0.00 0.00
2:53 am 02:53 Clear 88 31.1 41 5 19 19 WNW 6 9 29.93 1014 10 16 0.00 0.00
3:53 am 03:53 Clear 86 30 43 6.1 22 22 NW 3 6 29.94 1014 10 16 0.00 0.00
4:53 am 04:53 Clear 85 29.4 45 7.2 25 25 NW 5 7 29.95 1014 10 16 0.00 0.00
5:53 am 05:53 Sunny 84 28.9 48 8.9 29 29 NW 8 13 29.96 1015 10 16 0.00 0.00
6:53 am 06:53 Sunny 87 30.6 49 9.4 27 27 NNW 7 11 29.98 1015 10 16 0.00 0.00
7:53 am 07:53 Sunny 92 33.3 50 10 24 24 NNE 6 9 29.99 1016 10 16 0.00 0.00
8:53 am 08:53 Sunny 95 35 47 8.3 19 19 ENE 5 7 29.99 1016 10 16 0.00 0.00
9:53 am 09:53 Sunny 98 36.7 49 9.4 19 19 VRB 3 6 29.98 1015 10 16 0.00 0.00
10:53 am 10:53 Sunny 102 38.9 47 8.3 15 15 E 9 15 29.97 1015 10 16 0.00 0.00
11:53 am 11:53 Sunny 104 40 46 7.8 14 14 SE 5 7 29.96 1014 10 16 0.00 0.00
12:53 pm 12:53 Sunny 107 41.7 46 7.8 13 13 SE 12 19 29.93 1013 10 16 0.00 0.00
1:53 pm 13:53 Sunny 108 42.2 45 7.2 12 12 SSE 16 26 29.89 1012 10 16 0.00 0.00
2:53 pm 14:53 Sunny 108 42.2 47 8.3 13 13 SSW 10 17 29.87 1011 10 16 0.00 0.00
3:53 pm 15:53 Sunny 108 42.2 46 7.8 12 12 S 15 24 29.84 1011 10 16 0.00 0.00
4:53 pm 16:53 Sunny 107 41.7 44 6.7 12 12 SSW 10 17 29.83 1010 10 16 0.00 0.00
5:53 pm 17:53 Sunny 106 41.1 45 7.2 13 13 S 14 22 29.81 1010 10 16 0.00 0.00
6:53 pm 18:53 Sunny 106 41.1 44 6.7 12 12 SSW 9 15 29.80 1009 10 16 0.00 0.00
7:53 pm 19:53 Sunny 105 40.6 46 7.8 14 14 SSW 7 11 29.80 1009 10 16 0.00 0.00
8:53 pm 20:53 Clear 101 38.3 48 8.9 17 17 S 14 22 29.82 1010 10 16 0.00 0.00
9:53 pm 21:53 Clear 101 38.3 48 8.9 17 17 S 17 28 29.84 1011 10 16 0.00 0.00
10:53 pm 22:53 Mostly Cloudy 101 38.3 47 8.3 16 16 SSW 10 17 29.85 1011 10 16 0.00 0.00
11:53 pm 23:53 Clear 97 36.1 48 8.9 19 19 SSW 7 11 29.85 1011 10 16 0.00 0.00

Powered by AerisWeather